Location: La Pernelle
(49.6188°N, 1.2999°W)
Time: 08:44:56
(UTC+00:00)

SL-16 R/B - Pass Details

Date: 25 October 2021
Orbit: 842 x 846 km, 71.0° (Epoch: 04 December)

Event Time Altitude Azimuth Distance (km) Brightness Sun altitude
Rises 19:21:38 0° 235° (SW) 3,394 6.0 -24.3°
Reaches altitude 10° 19:24:16 10° 244° (WSW) 2,463 5.3 -24.7°
Maximum altitude 19:29:28 37° 311° (NW) 1,303 3.6 -25.6°
Drops below altitude 10° 19:34:42 10° 18° (NNE) 2,478 4.6 -26.4°
Enters shadow 19:35:40 - 22° (NNE) 2,809 4.8 -26.5°
